Погода в Шайханче

Узбекистан     39°48′38″N   64°24′30″E
темп.,
°C
ветер,
м/с
пор.,
м/с
влажн.,
%
обл.,
%
осадки,
мм/ч
давл.,
гПа
погр.,
м
27 февраля, сб
сб2723:00−1зсз111369 0.0 1030316
02:00−2зсз2213100 0.0 1029335
05:00−2ююз0113100 0.0 1029292
08:00−1ю341583 0.0 1029352
11:00+2ююз451271 0.0 1029662
14:00+5ююз55110 0.0 1028777
17:00+6ююз34120 0.0 1027782
20:00+5ююв23150 0.0 1028154
28 февраля, вс
вс2823:00+3юв23160 0.0 102743
02:00+2юв34170 0.0 102645
05:00+2вюв34220 0.0 102437
08:00+2вюв33350 0.0 102455
11:00+8вюв33261 0.0 1022362
14:00+11в222141 0.0 1019594
17:00+12в121948 0.0 1018675
20:00+10всв1124100 0.0 101823
1 марта, пн
пн123:00+9св3324100 0.0 101829
02:00+9вюв343086 0.0 101828
05:00+7юв463943 0.0 101793
08:00+7юв48410 0.0 1018158
11:00+13ю710290 0.0 1017672
14:00+18ююз79200 0.0 1016929
17:00+18юз56150 0.0 10161002
20:00+14зсз342311 0.0 101858
2 марта, вт
вт223:00+12ссз333549 0.0 101952
02:00+11с343693 0.0 102033
05:00+10с443692 0.0 102062
08:00+9с343681 0.0 102148
11:00+13с452690 0.0 1021397
14:00+17ссз232082 0.0 10211031
17:00+18ссз431860 0.0 10191836
20:00+14сз692784 0.0 1021347
3 марта, ср
ср323:00+10с693643 0.0 1021267
02:00+8с584437 0.0 1021240
05:00+7с584869 0.0 1021250
08:00+7с5746100 0.0 1021231
11:00+11ссв443696 0.0 1021353
14:00+14зюз233377 0.0 10191073
17:00+15зюз223138 0.0 10171349
20:00+13с233546 0.0 1017209